Location: Sagn�
(15.2046°N, 12.7898°W)
Time: 13:13:38
(UTC+00:00)

Okean O Rocket - Pass Details

Date: 08 May 2021
Orbit: 622 x 645 km, 98.2° (Epoch: 14 June)

Event Time Altitude Azimuth Distance (km) Brightness Sun altitude
Rises 19:43:29 0° 192° (SSW) 2,941 4.9 -8.3°
Reaches altitude 10° 19:46:01 10° 206° (SSW) 2,034 4.3 -8.9°
Maximum altitude 19:49:37 24° 260° (W) 1,319 4.0 -9.7°
Drops below altitude 10° 19:53:14 10° 315° (NW) 2,037 5.4 -10.5°
Sets 19:55:47 0° 329° (NNW) 2,946 6.0 -11.1°
